Weather History for Key West, FL

Change the Weather History Date:

Sunday, November 25, 2012

  Actual Average Record
Temperature  
Mean Temperature 65 °F 74 °F  
Max Temperature 69 °F 79 °F 88 °F (1886)
Min Temperature 61 °F 70 °F 50 °F (1970)
Degree Days  
Heating Degree Days 0 0  
Month to date heating degree days 0 0  
Since 1 July heating degree days 0 0  
Cooling Degree Days 0 10  
Month to date cooling degree days 180 280  
Year to date cooling degree days 4516 4488  
Growing Degree Days 16 (Base 50)    
Moisture  
Dew Point 58 °F    
Average Humidity 73    
Maximum Humidity 87    
Minimum Humidity 58    
Precipitation  
Precipitation 0.00 in 0.08 in 5.05 in (2009)
Month to date precipitation 0.10 1.91  
Year to date precipitation 46.30 37.22  
Snow  
Snow 0.00 in - - ()
Month to date snowfall 0.0  
Since 1 July snowfall 0.0  
Since 1 September snowfall 0.0  
Snow Depth 0.00 in    
Sea Level Pressure  
Sea Level Pressure 30.11 in    
Wind  
Wind Speed 6 mph (NNE)    
Max Wind Speed 15 mph    
Max Gust Speed 18 mph    
Visibility 10 miles    
Events      
T = Trace of Precipitation, MM = Missing Value Source: NWS Daily Summary

Daily Weather History Graph

Daily Weather History Graph

Search for Another Location

Airport:

Trip Planner

Search our weather history database for the weather conditions in past years. The results will help you decide how hot, cold, wet, or windy it might be!

Date:

Astronomy

Nov. 25, 2012 Rise Set
Actual Time 6:50 AM EST 5:37 PM EST
Civil Twilight 6:25 AM EST 6:02 PM EST
Nautical Twilight 5:57 AM EST 6:30 PM EST
Astronomical Twilight 5:30 AM EST 6:57 PM EST
Moon 3:44 PM EST (11/25) 4:15 AM EST (11/25)
Length of Visible Light 11h 36m
Length of Day
10h 47m
Waxing Gibbous, 93% of the Moon is Illuminated
Nov 25
Waxing Gibbous
Nov 28
Full
Dec 6
Last Quarter
Dec 13
New
Dec 20
First Quarter

Hourly Weather History & Observations

Time (EST) Temp. Dew Point Humidity Pressure Visibility Wind Dir Wind Speed Gust Speed Precip Events Conditions
12:53 AM 64.0 °F 60.1 °F 87% 30.09 in 10.0 mi Calm Calm - N/A   Clear
1:53 AM 64.9 °F 61.0 °F 87% 30.09 in 10.0 mi North 3.5 mph - N/A   Clear
2:53 AM 66.9 °F 62.1 °F 84% 30.08 in 10.0 mi North 4.6 mph - N/A   Clear
3:49 AM 66.2 °F 62.6 °F 88% 30.08 in 10.0 mi North 4.6 mph - N/A   Mostly Cloudy
3:53 AM 66.9 °F 63.0 °F 87% 30.08 in 10.0 mi North 4.6 mph - N/A   Mostly Cloudy
4:46 AM 66.2 °F 62.6 °F 88% 30.08 in 10.0 mi NNE 8.1 mph - N/A   Scattered Clouds
4:53 AM 66.9 °F 63.0 °F 87% 30.08 in 10.0 mi NE 8.1 mph - N/A   Partly Cloudy
5:53 AM 64.9 °F 60.1 °F 84% 30.08 in 10.0 mi NE 8.1 mph - N/A   Clear
6:43 AM 64.4 °F 57.2 °F 77% 30.11 in 10.0 mi NE 6.9 mph - N/A   Mostly Cloudy
6:53 AM 64.4 °F 57.2 °F 77% 30.11 in 10.0 mi NNE 6.9 mph - N/A   Overcast
7:14 AM 64.4 °F 55.4 °F 73% 30.12 in 10.0 mi NNE 6.9 mph - N/A   Scattered Clouds
7:53 AM 64.9 °F 55.0 °F 70% 30.12 in 10.0 mi NNE 9.2 mph - N/A   Clear
8:53 AM 66.9 °F 52.0 °F 59% 30.15 in 10.0 mi NNE 10.4 mph - N/A   Clear
9:53 AM 66.9 °F 55.9 °F 68% 30.15 in 10.0 mi North 13.8 mph - N/A   Clear
10:53 AM 68.0 °F 57.0 °F 68% 30.16 in 10.0 mi North 12.7 mph - N/A   Clear
11:53 AM 68.0 °F 57.0 °F 68% 30.15 in 10.0 mi North 11.5 mph - N/A   Clear
12:53 PM 69.1 °F 55.9 °F 63% 30.12 in 10.0 mi NNE 6.9 mph - N/A   Clear
1:53 PM 69.1 °F 57.0 °F 65% 30.10 in 10.0 mi North 8.1 mph - N/A   Clear
2:53 PM 69.1 °F 57.0 °F 65% 30.09 in 10.0 mi North 10.4 mph - N/A   Clear
3:53 PM 69.1 °F 57.9 °F 68% 30.09 in 10.0 mi North 6.9 mph - N/A   Clear
4:53 PM 66.9 °F 57.0 °F 70% 30.09 in 10.0 mi North 5.8 mph - N/A   Clear
5:53 PM 64.9 °F 55.9 °F 73% 30.10 in 10.0 mi NNE 3.5 mph - N/A   Clear
6:53 PM 64.9 °F 55.9 °F 73% 30.12 in 10.0 mi North 5.8 mph - N/A   Clear
7:53 PM 64.0 °F 55.0 °F 73% 30.13 in 10.0 mi Calm Calm - N/A   Clear
8:53 PM 63.0 °F 55.0 °F 75% 30.14 in 10.0 mi NNW 3.5 mph - N/A   Clear
9:53 PM 62.1 °F 55.0 °F 78% 30.14 in 10.0 mi NNE 3.5 mph - N/A   Clear
10:53 PM 63.0 °F 53.1 °F 70% 30.14 in 10.0 mi Calm Calm - N/A   Clear
11:53 PM 61.0 °F 57.0 °F 87% 30.14 in 10.0 mi NNE 3.5 mph - N/A   Clear